Home > Weather > Cartagena > Past weeks

Flag for Colombia Past Weather in Cartagena, Colombia — Yesterday and Last 2 Weeks

Now
91 °F

Passing clouds.


Feels Like: 105 °F
Forecast: 81 / 91 °F
Wind: 16 mph from North

Location: Cartagena / Rafael Nunez

Current Time: Jul 26, 2016 at 2:52:04 PM

Latest Report: Jul 26, 2016 at 2:00 PM


Visibility: N/A

Pressure: 29.74 "Hg

Humidity: 63%

Dew Point: 77 °F

Location of CartagenaLocation

Past Weather in Cartagena — Graph

°F

Cartagena Temperature Yesterday

Maximum temperature yesterday: 93 °F (at 12:00 PM)
Minimum temperature yesterday: 79 °F (at 5:00 AM)
Average temperature yesterday: 84 °F

High & Low Weather Summary for the Past Weeks

 TemperatureHumidityPressure
High93 °F (Jul 14, 11:00 AM)100% (Jul 15, 7:00 PM)29.90 "Hg (Jul 15, 7:00 PM)
Low77 °F (Jul 14, 3:00 PM)56% (Jul 24, 12:00 PM)29.75 "Hg (Jul 12, 2:00 PM)
Average84 °F82%29.83 "Hg
* Reported Jul 11 1:00 PM — Jul 26 1:00 PM, Cartagena, Weather by CustomWeather, © 2016

Note: Actual official high and low records may vary slightly from our data, if they occured in-between our weather recording intervals... More about our weather records

Advertising

Cartagena Weather History for the Previous 24 Hours

Scroll right to see more
 ConditionsComfort  
Time TempWeatherWind HumidityBarometerVisibility
1:00 PM
Tue, Jul 26
90 °FPassing clouds.14 mph71%29.76 "HgN/A
12:00 PM91 °FPassing clouds.14 mph67%29.77 "HgN/A
11:00 AM90 °FPassing clouds.12 mph71%29.78 "HgN/A
10:00 AM86 °FWarm.N/A79%29.81 "HgN/A
9:00 AM86 °FPassing clouds.3 mph79%29.81 "HgN/A
8:00 AM84 °FPassing clouds.3 mph84%29.81 "HgN/A
7:00 AM82 °FScattered clouds.2 mph84%29.79 "HgN/A
6:00 AM81 °FScattered clouds.5 mph89%29.77 "HgN/A
5:00 AM81 °FPassing clouds.5 mph89%29.76 "HgN/A
4:00 AM81 °FPassing clouds.5 mph94%29.75 "HgN/A
3:00 AM81 °FPassing clouds.5 mph94%29.75 "HgN/A
2:00 AM81 °FPassing clouds.5 mph94%29.75 "HgN/A
1:00 AM81 °FPassing clouds.5 mph94%29.76 "HgN/A
12:00 AM82 °FPassing clouds.5 mph89%29.78 "HgN/A
11:00 PM
Mon, Jul 25
82 °FPassing clouds.5 mph84%29.80 "HgN/A
10:00 PM82 °FPassing clouds.5 mph89%29.80 "HgN/A
9:00 PM82 °FPassing clouds.7 mph84%29.80 "HgN/A
8:00 PM82 °FPassing clouds.9 mph84%29.79 "HgN/A
7:00 PM82 °FPassing clouds.7 mph84%29.80 "HgN/A
6:00 PM86 °FPassing clouds.10 mph75%29.78 "HgN/A
5:00 PM88 °FPassing clouds.12 mph70%29.76 "HgN/A
4:00 PM88 °FScattered clouds.12 mph70%29.78 "HgN/A
3:00 PM86 °FScattered clouds.12 mph75%29.79 "HgN/A
2:00 PM88 °FScattered clouds.12 mph70%29.81 "HgN/A
Weather by CustomWeather, © 2016

See weather overviewHow to use our weather pages